| time (UTC) | temp F | wind direction | speed knots | gust knots | rain 1hr in | rain 24hr in | rain mn in | humidity % | barometer mb |
| 20260507151506 | 69 | 276 | 6.1 | 13.0 | 0.00 | 0.58 | 0.00 | 45 | 1015.7 |
| 20260507151007 | 70 | 284 | 4.3 | 13.0 | 0.00 | 0.58 | 0.00 | 46 | 1014.7 |
| 20260507150506 | 70 | 287 | 5.2 | 13.0 | 0.00 | 0.58 | 0.00 | 46 | 1014.7 |
| 20260507150007 | 70 | 292 | 3.5 | 13.0 | 0.00 | 0.58 | 0.00 | 45 | 1014.7 |
| 20260507145506 | 71 | 285 | 8.7 | 12.2 | 0.00 | 0.58 | 0.00 | 45 | 1014.7 |
| 20260507145006 | 71 | 282 | 6.1 | 10.4 | 0.00 | 0.58 | 0.00 | 44 | 1014.7 |
| 20260507144506 | 71 | 292 | 7.0 | 10.4 | 0.00 | 0.58 | 0.00 | 44 | 1014.7 |
| 20260507144006 | 71 | 292 | 7.0 | 12.2 | 0.00 | 0.58 | 0.00 | 43 | 1013.7 |
| 20260507143006 | 71 | 285 | 5.2 | 12.2 | 0.00 | 0.58 | 0.00 | 43 | 1013.7 |
| 20260507142506 | 71 | 285 | 6.1 | 9.6 | 0.00 | 0.58 | 0.00 | 42 | 1013.7 |
| 20260507142006 | 71 | 282 | 6.1 | 12.2 | 0.00 | 0.58 | 0.00 | 42 | 1013.7 |
| 20260507141506 | 71 | 288 | 6.1 | 12.2 | 0.00 | 0.58 | 0.00 | 41 | 1013.7 |
| 20260507141007 | 72 | 291 | 7.0 | 9.6 | 0.00 | 0.58 | 0.00 | 44 | 1013.7 |
| 20260507140007 | 72 | 270 | 1.7 | 10.4 | 0.00 | 0.58 | 0.00 | 43 | 1013.7 |
| 20260507135506 | 72 | 281 | 5.2 | 9.6 | 0.00 | 0.58 | 0.00 | 45 | 1013.7 |
| 20260507135006 | 72 | 270 | 5.2 | 8.7 | 0.00 | 0.58 | 0.00 | 43 | 1013.7 |
| 20260507134506 | 72 | 296 | 2.6 | 9.6 | 0.00 | 0.58 | 0.00 | 45 | 1013.7 |
| 20260507134006 | 72 | 310 | 3.5 | 9.6 | 0.00 | 0.58 | 0.00 | 45 | 1013.7 |
| 20260507133506 | 72 | 296 | 2.6 | 9.6 | 0.00 | 0.58 | 0.00 | 46 | 1013.7 |
| 20260507133006 | 72 | 286 | 5.2 | 9.6 | 0.00 | 0.58 | 0.00 | 47 | 1013.7 |
| 20260507132506 | 72 | 282 | 3.5 | 9.6 | 0.00 | 0.58 | 0.00 | 49 | 1013.7 |
| 20260507132007 | 72 | 276 | 3.5 | 7.8 | 0.00 | 0.58 | 0.00 | 49 | 1013.7 |
| 20260507131506 | 72 | 209 | 2.6 | 10.4 | 0.00 | 0.58 | 0.00 | 49 | 1013.7 |
| 20260507131007 | 72 | 178 | 7.8 | 11.3 | 0.00 | 0.58 | 0.00 | 49 | 1014.7 |
| 20260507130007 | 71 | 231 | 1.7 | 7.0 | 0.00 | 0.58 | 0.00 | 49 | 1014.7 |
| 20260507125506 | 71 | 234 | 3.5 | 7.0 | 0.00 | 0.58 | 0.00 | 48 | 1014.7 |
| 20260507124506 | 71 | 203 | 5.2 | 7.8 | 0.00 | 0.58 | 0.00 | 50 | 1014.7 |
| 20260507124006 | 71 | 183 | 5.2 | 7.8 | 0.00 | 0.58 | 0.00 | 50 | 1014.7 |
| 20260507123506 | 72 | 150 | 0.9 | 4.3 | 0.00 | 0.62 | 0.00 | 50 | 1014.7 |
| 20260507123006 | 72 | 129 | 0.9 | 3.5 | 0.00 | 0.62 | 0.00 | 49 | 1014.7 |
| 20260507122507 | 72 | 193 | 1.7 | 7.0 | 0.00 | 0.66 | 0.00 | 50 | 1014.7 |
| 20260507122006 | 72 | 224 | 2.6 | 7.0 | 0.00 | 0.66 | 0.00 | 50 | 1014.7 |
| 20260507120506 | 72 | 217 | 1.7 | 6.1 | 0.00 | 0.66 | 0.00 | 50 | 1014.7 |
| 20260507115507 | 72 | 229 | 3.5 | 10.4 | 0.00 | 0.66 | 0.00 | 50 | 1014.7 |
| 20260507115006 | 72 | 243 | 0.9 | 10.4 | 0.00 | 0.70 | 0.00 | 51 | 1014.7 |
| 20260507114506 | 72 | 231 | 4.3 | 7.8 | 0.00 | 0.70 | 0.00 | 51 | 1014.7 |
| 20260507114007 | 71 | 208 | 3.5 | 9.6 | 0.00 | 0.70 | 0.00 | 52 | 1015.7 |
| 20260507113506 | 71 | 218 | 1.7 | 9.6 | 0.00 | 0.70 | 0.00 | 53 | 1015.7 |
| 20260507113007 | 71 | 217 | 4.3 | 9.6 | 0.00 | 0.70 | 0.00 | 51 | 1015.7 |
| 20260507112506 | 71 | 220 | 1.7 | 9.6 | 0.00 | 0.70 | 0.00 | 53 | 1014.7 |
| 20260507112006 | 71 | 210 | 4.3 | 7.8 | 0.00 | 0.70 | 0.00 | 53 | 1014.7 |
| 20260507111507 | 71 | 187 | 2.6 | 9.6 | 0.00 | 0.74 | 0.00 | 53 | 1014.7 |
| 20260507110506 | 71 | 289 | 5.2 | 9.6 | 0.00 | 0.74 | 0.00 | 53 | 1014.7 |
| 20260507110006 | 71 | 250 | 4.3 | 9.6 | 0.00 | 0.74 | 0.00 | 55 | 1014.7 |
| 20260507105506 | 71 | 254 | 1.7 | 7.0 | 0.00 | 0.74 | 0.00 | 54 | 1014.7 |
| 20260507105006 | 71 | 277 | 4.3 | 10.4 | 0.00 | 0.74 | 0.00 | 55 | 1014.7 |
| 20260507104506 | 71 | 243 | 6.1 | 10.4 | 0.00 | 0.74 | 0.00 | 55 | 1014.7 |
| 20260507104006 | 71 | 221 | 1.7 | 9.6 | 0.00 | 0.74 | 0.00 | 54 | 1014.7 |
| 20260507103506 | 71 | 208 | 5.2 | 9.6 | 0.00 | 0.74 | 0.00 | 55 | 1014.7 |
| 20260507103006 | 71 | 207 | 2.6 | 10.4 | 0.00 | 0.74 | 0.00 | 55 | 1014.7 |
| 20260507102506 | 71 | 239 | 2.6 | 10.4 | 0.00 | 0.74 | 0.00 | 55 | 1015.7 |
| 20260507102007 | 71 | 286 | 4.3 | 7.8 | 0.00 | 0.74 | 0.00 | 56 | 1015.7 |
| 20260507101507 | 70 | 295 | 6.1 | 10.4 | 0.00 | 0.78 | 0.00 | 57 | 1015.7 |
| 20260507101006 | 70 | 242 | 4.3 | 10.4 | 0.00 | 0.78 | 0.00 | 57 | 1015.7 |
| 20260507100507 | 70 | 197 | 3.5 | 8.7 | 0.00 | 0.78 | 0.00 | 59 | 1015.7 |
| 20260507100006 | 70 | 222 | 6.1 | 8.7 | 0.00 | 0.78 | 0.00 | 58 | 1015.7 |
| 20260507095006 | 69 | 268 | 6.1 | 9.6 | 0.00 | 0.78 | 0.00 | 59 | 1015.7 |
| 20260507094006 | 69 | 296 | 4.3 | 9.6 | 0.00 | 0.78 | 0.00 | 62 | 1014.7 |
| 20260507093505 | 68 | 292 | 5.2 | 9.6 | 0.00 | 0.78 | 0.00 | 63 | 1014.7 |
| 20260507092506 | 67 | 296 | 5.2 | 11.3 | 0.00 | 0.78 | 0.00 | 65 | 1015.7 |
| 20260507092006 | 67 | 299 | 2.6 | 11.3 | 0.00 | 0.78 | 0.00 | 67 | 1015.7 |
| 20260507091505 | 67 | 301 | 2.6 | 7.8 | 0.00 | 0.78 | 0.00 | 67 | 1015.7 |
| 20260507091006 | 67 | 296 | 3.5 | 7.8 | 0.00 | 0.78 | 0.00 | 67 | 1014.7 |
| 20260507090507 | 66 | 264 | 3.5 | 7.8 | 0.00 | 0.78 | 0.00 | 72 | 1014.7 |
| 20260507090006 | 65 | 258 | 2.6 | 3.5 | 0.00 | 0.78 | 0.00 | 74 | 1014.7 |
| 20260507085006 | 64 | 254 | 1.7 | 3.5 | 0.00 | 0.78 | 0.00 | 74 | 1014.7 |
| 20260507084506 | 64 | 262 | 3.5 | 7.0 | 0.00 | 0.78 | 0.00 | 74 | 1014.7 |
| 20260507084006 | 64 | 273 | 5.2 | 7.8 | 0.00 | 0.83 | 0.00 | 74 | 1014.7 |
| 20260507083506 | 65 | 273 | 2.6 | 7.8 | 0.00 | 0.83 | 0.00 | 75 | 1014.7 |
| 20260507083006 | 65 | 279 | 1.7 | 7.0 | 0.00 | 0.83 | 0.00 | 74 | 1014.7 |
| 20260507082506 | 65 | 302 | 4.3 | 7.8 | 0.00 | 0.83 | 0.00 | 77 | 1014.7 |
| 20260507081505 | 65 | 297 | 5.2 | 7.0 | 0.00 | 0.87 | 0.00 | 79 | 1014.7 |
| 20260507081007 | 64 | 290 | 2.6 | 6.1 | 0.00 | 0.87 | 0.00 | 79 | 1014.7 |
| 20260507080506 | 64 | 280 | 1.7 | 5.2 | 0.00 | 0.91 | 0.00 | 81 | 1014.7 |
| 20260507080006 | 63 | 270 | 3.5 | 6.1 | 0.00 | 0.91 | 0.00 | 81 | 1014.7 |
| 20260507075506 | 63 | 266 | 1.7 | 6.1 | 0.00 | 0.95 | 0.00 | 80 | 1014.7 |
| 20260507074506 | 63 | 285 | 2.6 | 5.2 | 0.00 | 0.95 | 0.00 | 82 | 1014.7 |
| 20260507074006 | 64 | 298 | 2.6 | 5.2 | 0.00 | 0.95 | 0.00 | 85 | 1014.7 |
| 20260507073505 | 63 | 310 | 3.5 | 5.2 | 0.00 | 0.95 | 0.00 | 86 | 1014.7 |
| 20260507073005 | 63 | 335 | 1.7 | 3.5 | 0.00 | 0.95 | 0.00 | 86 | 1014.7 |
| 20260507072006 | 63 | 296 | 1.7 | 5.2 | 0.00 | 0.99 | 0.00 | 89 | 1014.7 |
| 20260507071506 | 62 | 290 | 2.6 | 5.2 | 0.00 | 0.99 | 0.00 | 90 | 1014.7 |
| 20260507071006 | 62 | 305 | 2.6 | 4.3 | 0.00 | 0.99 | 0.00 | 92 | 1014.7 |
| 20260507070506 | 62 | 282 | 2.6 | 4.3 | 0.00 | 0.99 | 0.00 | 93 | 1014.7 |
| 20260507070010 | 62 | 265 | 1.7 | 4.3 | 0.00 | 0.99 | 0.00 | 93 | 1014.7 |
| 20260507064507 | 61 | 259 | 1.7 | 3.5 | 0.00 | 1.04 | 0.00 | 94 | 1013.7 |
| 20260507064006 | 61 | 210 | 1.7 | 2.6 | 0.00 | 1.07 | 0.00 | 94 | 1013.7 |
| 20260507063505 | 60 | 189 | 0.0 | 1.7 | 0.00 | 1.12 | 0.00 | 94 | 1013.7 |
| 20260507063006 | 60 | 214 | 0.0 | 1.7 | 0.00 | 1.16 | 0.00 | 95 | 1013.7 |
| 20260507062506 | 59 | 206 | 1.7 | 1.7 | 0.00 | 1.20 | 0.00 | 95 | 1013.7 |
| 20260507062006 | 59 | 274 | 0.0 | 1.7 | 0.00 | 1.28 | 0.00 | 94 | 1013.7 |
| 20260507061505 | 59 | 327 | 0.9 | 1.7 | 0.00 | 1.28 | 0.00 | 94 | 1013.7 |
| 20260507061006 | 59 | 327 | 0.9 | 1.7 | 0.00 | 1.32 | 0.00 | 96 | 1013.7 |
| 20260507060505 | 59 | 314 | 0.0 | 1.7 | 0.00 | 1.37 | 0.00 | 96 | 1013.7 |
| 20260507060006 | 59 | 335 | 0.0 | 1.7 | 0.00 | 1.41 | 0.00 | 96 | 1013.7 |
| 20260507055506 | 58 | 73 | 0.0 | 1.7 | 0.00 | 1.41 | 0.00 | 96 | 1013.7 |
| 20260507055006 | 58 | 113 | 0.0 | 2.6 | 0.00 | 1.41 | 0.00 | 96 | 1013.7 |
| 20260507054006 | 58 | 86 | 1.7 | 2.6 | 0.00 | 1.41 | 0.00 | 96 | 1013.7 |
| 20260507053506 | 58 | 54 | 0.9 | 1.7 | 0.00 | 1.41 | 0.00 | 95 | 1013.7 |
| 20260507053006 | 58 | 39 | 0.0 | 1.7 | 0.00 | 1.41 | 0.00 | 95 | 1013.7 |
| 20260507052006 | 58 | 23 | 0.0 | 1.7 | 0.00 | 1.41 | 0.00 | 95 | 1013.7 |
| 20260507051006 | 57 | 25 | 0.9 | 1.7 | 0.00 | 1.41 | 0.00 | 95 | 1013.7 |
| 20260507050006 | 57 | 100 | 0.0 | 1.7 | 0.00 | 1.41 | 0.00 | 94 | 1013.7 |
| 20260507045505 | 57 | 88 | 0.9 | 2.6 | 0.00 | 1.41 | 0.00 | 94 | 1013.7 |
| 20260507044506 | 57 | 51 | 0.0 | 1.7 | 0.00 | 1.41 | 0.00 | 94 | 1013.7 |
| 20260507043506 | 58 | 0 | 0.0 | 0.0 | 0.00 | 1.41 | 0.00 | 94 | 1013.7 |
| 20260507043005 | 58 | 0 | 0.0 | 0.0 | 0.00 | 1.41 | 0.00 | 94 | 1013.7 |
| 20260507042506 | 58 | 292 | 0.0 | 1.7 | 0.00 | 1.41 | 0.00 | 94 | 1013.7 |
| 20260507042005 | 58 | 283 | 0.0 | 1.7 | 0.00 | 1.41 | 0.00 | 94 | 1013.7 |
| 20260507041506 | 58 | 18 | 0.0 | 1.7 | 0.00 | 1.41 | 0.00 | 94 | 1013.7 |
| 20260507041005 | 58 | 58 | 0.9 | 1.7 | 0.00 | 1.41 | 0.00 | 94 | 1013.7 |
| 20260507040506 | 58 | 86 | 1.7 | 1.7 | 0.00 | 1.41 | 0.00 | 94 | 1013.7 |
| 20260507040005 | 58 | 89 | 0.9 | 1.7 | 0.00 | 1.41 | 0.00 | 94 | 1013.7 |
| 20260507035506 | 58 | 85 | 0.0 | 2.6 | 0.00 | 1.41 | 0.00 | 94 | 1013.7 |
| 20260507034506 | 58 | 87 | 1.7 | 3.5 | 0.00 | 1.41 | 0.00 | 94 | 1013.7 |
| 20260507034006 | 58 | 65 | 1.7 | 3.5 | 0.00 | 1.41 | 0.00 | 94 | 1013.7 |
| 20260507033506 | 58 | 72 | 0.9 | 1.7 | 0.00 | 1.41 | 0.00 | 94 | 1013.7 |
| 20260507033005 | 58 | 77 | 0.0 | 2.6 | 0.00 | 1.41 | 0.00 | 94 | 1013.7 |
| 20260507032506 | 59 | 72 | 1.7 | 2.6 | 0.00 | 1.41 | 0.00 | 94 | 1013.7 |
| 20260507032005 | 59 | 86 | 1.7 | 3.5 | 0.00 | 1.41 | 0.00 | 94 | 1013.7 |
| 20260507030506 | 59 | 131 | 1.7 | 4.3 | 0.00 | 1.41 | 0.00 | 94 | 1013.7 |
| 20260507030005 | 59 | 172 | 1.7 | 4.3 | 0.00 | 1.41 | 0.00 | 94 | 1013.7 |
| 20260507025506 | 59 | 232 | 1.7 | 3.5 | 0.00 | 1.41 | 0.00 | 94 | 1013.7 |
| 20260507024506 | 59 | 278 | 1.7 | 2.6 | 0.00 | 1.41 | 0.00 | 94 | 1013.7 |
| 20260507024005 | 59 | 294 | 0.9 | 2.6 | 0.00 | 1.41 | 0.00 | 94 | 1013.7 |
| 20260507023506 | 59 | 270 | 0.9 | 7.0 | 0.00 | 1.41 | 0.00 | 95 | 1013.7 |
| 20260507023005 | 59 | 265 | 0.9 | 7.0 | 0.00 | 1.41 | 0.00 | 95 | 1013.7 |
| 20260507021506 | 59 | 251 | 1.7 | 3.5 | 0.00 | 1.41 | 0.00 | 96 | 1013.7 |
| 20260507021005 | 59 | 269 | 1.7 | 2.6 | 0.00 | 1.41 | 0.00 | 96 | 1012.7 |
| 20260507020506 | 59 | 19 | 0.0 | 1.7 | 0.00 | 1.41 | 0.00 | 96 | 1012.7 |
| 20260507020005 | 59 | 8 | 0.9 | 2.6 | 0.00 | 1.41 | 0.00 | 96 | 1012.7 |
| 20260507015506 | 59 | 248 | 0.9 | 2.6 | 0.00 | 1.41 | 0.00 | 96 | 1012.7 |
| 20260507015006 | 59 | 281 | 1.7 | 2.6 | 0.00 | 1.41 | 0.00 | 96 | 1012.7 |
| 20260507014505 | 59 | 293 | 0.0 | 4.3 | 0.00 | 1.41 | 0.00 | 96 | 1012.7 |
| 20260507014006 | 59 | 281 | 2.6 | 4.3 | 0.00 | 1.41 | 0.00 | 96 | 1013.7 |
| 20260507013505 | 59 | 262 | 3.5 | 4.3 | 0.00 | 1.41 | 0.00 | 95 | 1013.7 |
| 20260507013006 | 59 | 257 | 1.7 | 4.3 | 0.00 | 1.41 | 0.00 | 95 | 1013.7 |
| 20260507012505 | 59 | 247 | 1.7 | 3.5 | 0.00 | 1.41 | 0.00 | 95 | 1013.7 |
| 20260507012006 | 59 | 230 | 1.7 | 3.5 | 0.00 | 1.41 | 0.00 | 95 | 1013.7 |
| 20260507011506 | 59 | 258 | 1.7 | 4.3 | 0.00 | 1.41 | 0.00 | 96 | 1013.7 |
| 20260507011005 | 59 | 274 | 1.7 | 4.3 | 0.00 | 1.41 | 0.00 | 95 | 1012.7 |
| 20260507010506 | 59 | 270 | 2.6 | 4.3 | 0.00 | 1.41 | 0.00 | 95 | 1012.7 |
| 20260507010006 | 58 | 260 | 1.7 | 3.5 | 0.00 | 1.41 | 0.00 | 95 | 1012.7 |
| 20260507005006 | 59 | 272 | 1.7 | 3.5 | 0.00 | 1.45 | 0.00 | 95 | 1012.7 |
| 20260507004506 | 59 | 277 | 1.7 | 3.5 | 0.00 | 1.45 | 0.00 | 95 | 1012.7 |
| 20260507004005 | 58 | 267 | 2.6 | 3.5 | 0.00 | 1.49 | 0.00 | 95 | 1013.7 |
| 20260507003506 | 58 | 260 | 2.6 | 3.5 | 0.00 | 1.53 | 0.00 | 95 | 1013.7 |
| 20260507002505 | 58 | 269 | 2.6 | 3.5 | 0.00 | 1.66 | 0.00 | 95 | 1013.7 |
| 20260507001505 | 58 | 257 | 1.7 | 3.5 | 0.00 | 1.82 | 0.00 | 95 | 1013.7 |
| 20260507001006 | 58 | 256 | 0.9 | 3.5 | 0.00 | 1.82 | 0.00 | 95 | 1012.7 |
| 20260507000506 | 58 | 243 | 2.6 | 3.5 | 0.00 | 1.86 | 0.00 | 95 | 1012.7 |
| 20260507000006 | 58 | 247 | 1.7 | 3.5 | 0.00 | 1.86 | 0.00 | 95 | 1012.7 |
| 20260506235506 | 58 | 249 | 1.7 | 3.5 | 0.00 | 1.91 | 0.00 | 95 | 1013.7 |
| 20260506235005 | 58 | 236 | 1.7 | 3.5 | 0.00 | 1.91 | 0.00 | 95 | 1013.7 |
| 20260506234506 | 58 | 262 | 2.6 | 6.1 | 0.00 | 1.91 | 0.00 | 95 | 1013.7 |
| 20260506234005 | 58 | 266 | 1.7 | 6.1 | 0.00 | 1.91 | 0.00 | 95 | 1013.7 |
| 20260506233506 | 58 | 266 | 2.6 | 4.3 | 0.00 | 1.94 | 0.00 | 95 | 1013.7 |
| 20260506233006 | 58 | 260 | 1.7 | 4.3 | 0.00 | 1.99 | 0.00 | 95 | 1013.7 |
| 20260506232506 | 58 | 267 | 2.6 | 3.5 | 0.00 | 1.99 | 0.00 | 95 | 1013.7 |
| 20260506232019 | 58 | 285 | 2.6 | 3.5 | 0.00 | 2.03 | 0.00 | 95 | 1013.7 |
| 20260506231524 | 58 | 248 | 1.7 | 3.5 | 0.00 | 2.07 | 0.00 | 95 | 1013.7 |
| 20260506230507 | 58 | 241 | 1.7 | 4.3 | 0.00 | 2.07 | 0.00 | 95 | 1013.7 |
| 20260506225506 | 58 | 244 | 2.6 | 4.3 | 0.00 | 2.07 | 0.00 | 95 | 1013.7 |
| 20260506225005 | 58 | 278 | 1.7 | 7.0 | 0.00 | 2.07 | 0.00 | 95 | 1013.7 |
| 20260506224506 | 58 | 270 | 3.5 | 7.0 | 0.00 | 2.07 | 0.00 | 95 | 1013.7 |
| 20260506224005 | 58 | 238 | 2.6 | 5.2 | 0.00 | 2.07 | 0.00 | 95 | 1013.7 |
| 20260506223506 | 58 | 248 | 3.5 | 6.1 | 0.00 | 2.07 | 0.00 | 95 | 1013.7 |
| 20260506223005 | 58 | 269 | 3.5 | 7.0 | 0.00 | 2.07 | 0.00 | 95 | 1013.7 |
| 20260506222506 | 58 | 264 | 4.3 | 7.0 | 0.00 | 2.07 | 0.00 | 95 | 1012.7 |
| 20260506222005 | 58 | 248 | 3.5 | 4.3 | 0.00 | 2.07 | 0.00 | 95 | 1012.7 |
| 20260506221506 | 58 | 259 | 1.7 | 5.2 | 0.00 | 2.07 | 0.00 | 95 | 1012.7 |
| 20260506221005 | 58 | 264 | 3.5 | 5.2 | 0.00 | 2.07 | 0.00 | 95 | 1013.7 |
| 20260506220506 | 58 | 268 | 1.7 | 5.2 | 0.00 | 2.07 | 0.00 | 95 | 1013.7 |
| 20260506220011 | 58 | 265 | 3.5 | 5.2 | 0.00 | 2.07 | 0.00 | 95 | 1013.7 |
| 20260506215505 | 59 | 253 | 4.3 | 5.2 | 0.00 | 2.07 | 2.07 | 95 | 1013.7 |
| 20260506215006 | 59 | 263 | 1.7 | 2.6 | 0.00 | 2.07 | 2.07 | 95 | 1013.7 |
| 20260506214506 | 59 | 271 | 1.7 | 1.7 | 0.00 | 2.07 | 2.07 | 95 | 1013.7 |
| 20260506214006 | 59 | 271 | 1.7 | 2.6 | 0.00 | 2.07 | 2.07 | 95 | 1013.7 |
| 20260506213505 | 59 | 246 | 1.7 | 2.6 | 0.00 | 2.07 | 2.07 | 95 | 1013.7 |
| 20260506213006 | 59 | 245 | 0.0 | 3.5 | 0.00 | 2.07 | 2.07 | 95 | 1013.7 |
| 20260506212005 | 59 | 252 | 1.7 | 2.6 | 0.00 | 2.07 | 2.07 | 95 | 1013.7 |
| 20260506211506 | 59 | 234 | 1.7 | 2.6 | 0.00 | 2.07 | 2.07 | 94 | 1013.7 |
| 20260506211005 | 59 | 223 | 1.7 | 2.6 | 0.00 | 2.07 | 2.07 | 94 | 1013.7 |
| 20260506210506 | 59 | 233 | 1.7 | 2.6 | 0.00 | 2.07 | 2.07 | 94 | 1013.7 |
| 20260506205505 | 59 | 255 | 1.7 | 3.5 | 0.00 | 2.07 | 2.07 | 94 | 1013.7 |
| 20260506204506 | 60 | 244 | 1.7 | 4.3 | 0.00 | 2.07 | 2.07 | 94 | 1013.7 |
| 20260506204005 | 60 | 243 | 1.7 | 4.3 | 0.00 | 2.07 | 2.07 | 94 | 1013.7 |
| 20260506203506 | 60 | 250 | 1.7 | 3.5 | 0.00 | 2.07 | 2.07 | 94 | 1013.7 |
| 20260506203005 | 60 | 248 | 1.7 | 3.5 | 0.00 | 2.07 | 2.07 | 94 | 1013.7 |
| 20260506202506 | 60 | 249 | 1.7 | 3.5 | 0.00 | 2.07 | 2.07 | 94 | 1013.7 |
| 20260506202005 | 60 | 280 | 1.7 | 3.5 | 0.00 | 2.07 | 2.07 | 94 | 1013.7 |
| 20260506201505 | 60 | 277 | 2.6 | 4.3 | 0.00 | 2.07 | 2.07 | 94 | 1013.7 |
| 20260506201006 | 60 | 257 | 1.7 | 4.3 | 0.00 | 2.07 | 2.07 | 94 | 1013.7 |
| 20260506200505 | 60 | 248 | 3.5 | 4.3 | 0.00 | 2.07 | 2.07 | 95 | 1013.7 |
| 20260506200006 | 60 | 239 | 2.6 | 3.5 | 0.00 | 2.07 | 2.07 | 94 | 1013.7 |
| 20260506195505 | 60 | 253 | 1.7 | 3.5 | 0.00 | 2.07 | 2.07 | 94 | 1012.7 |
| 20260506195005 | 60 | 245 | 1.7 | 3.5 | 0.00 | 2.07 | 2.07 | 95 | 1012.7 |
| 20260506194506 | 60 | 235 | 2.6 | 3.5 | 0.00 | 2.07 | 2.07 | 95 | 1012.7 |
| 20260506194005 | 60 | 264 | 2.6 | 4.3 | 0.04 | 2.07 | 2.07 | 95 | 1012.7 |
| 20260506193005 | 60 | 226 | 2.6 | 3.5 | 0.08 | 2.07 | 2.07 | 95 | 1012.7 |
| 20260506192506 | 60 | 259 | 1.7 | 7.8 | 0.08 | 2.07 | 2.07 | 95 | 1012.7 |
| 20260506192005 | 60 | 280 | 2.6 | 7.8 | 0.12 | 2.07 | 2.07 | 94 | 1012.7 |
| 20260506191506 | 60 | 298 | 4.3 | 6.1 | 0.29 | 2.07 | 2.07 | 88 | 1012.7 |
| 20260506191005 | 60 | 291 | 1.7 | 6.1 | 0.33 | 2.07 | 2.07 | 88 | 1012.7 |
| 20260506190506 | 60 | 260 | 3.5 | 6.1 | 0.33 | 2.07 | 2.07 | 88 | 1012.7 |
| 20260506190006 | 60 | 255 | 0.0 | 5.2 | 0.33 | 2.07 | 2.07 | 88 | 1012.7 |
| 20260506185505 | 60 | 259 | 4.3 | 6.1 | 0.33 | 2.07 | 2.07 | 88 | 1011.7 |
| 20260506184505 | 60 | 98 | 0.0 | 3.5 | 0.33 | 2.07 | 2.07 | 87 | 1011.7 |
| 20260506184006 | 60 | 265 | 1.7 | 3.5 | 0.29 | 2.03 | 2.03 | 88 | 1011.7 |
| 20260506183505 | 60 | 9 | 1.7 | 1.7 | 0.29 | 2.03 | 2.03 | 87 | 1011.7 |
| 20260506183006 | 60 | 73 | 0.9 | 1.7 | 0.25 | 1.99 | 1.99 | 87 | 1011.7 |
| 20260506182506 | 60 | 196 | 1.7 | 2.6 | 0.25 | 1.99 | 1.99 | 87 | 1011.7 |
| 20260506182006 | 60 | 222 | 1.7 | 2.6 | 0.21 | 1.95 | 1.95 | 87 | 1011.7 |
| 20260506181505 | 60 | 248 | 1.7 | 2.6 | 0.04 | 1.78 | 1.78 | 87 | 1011.7 |
| 20260506180506 | 60 | 248 | 1.7 | 3.5 | 0.00 | 1.78 | 1.74 | 86 | 1011.7 |
| 20260506180006 | 61 | 270 | 1.7 | 2.6 | 0.12 | 1.78 | 1.74 | 86 | 1011.7 |
| 20260506175506 | 61 | 316 | 1.7 | 2.6 | 0.21 | 1.78 | 1.74 | 86 | 1011.7 |
| 20260506174506 | 61 | 158 | 1.7 | 6.1 | 0.25 | 1.78 | 1.74 | 86 | 1011.7 |
| 20260506173505 | 61 | 276 | 3.5 | 6.1 | 0.25 | 1.78 | 1.74 | 86 | 1011.7 |
| 20260506173006 | 61 | 272 | 3.5 | 7.8 | 0.25 | 1.78 | 1.74 | 86 | 1011.7 |
| 20260506172505 | 61 | 271 | 6.1 | 13.0 | 0.25 | 1.78 | 1.74 | 84 | 1011.7 |
| 20260506172005 | 61 | 267 | 7.8 | 13.0 | 0.25 | 1.78 | 1.74 | 86 | 1011.7 |
| 20260506171505 | 61 | 254 | 5.2 | 9.6 | 0.25 | 1.78 | 1.74 | 87 | 1011.7 |
| 20260506171006 | 61 | 257 | 3.5 | 10.4 | 0.25 | 1.78 | 1.74 | 88 | 1011.7 |
| 20260506170505 | 61 | 270 | 2.6 | 10.4 | 0.25 | 1.78 | 1.74 | 88 | 1011.7 |
| 20260506170006 | 61 | 290 | 3.5 | 5.2 | 0.13 | 1.66 | 1.62 | 88 | 1011.7 |
| 20260506165505 | 61 | 246 | 0.9 | 1.7 | 0.00 | 1.53 | 1.49 | 88 | 1011.7 |
| 20260506165006 | 61 | 194 | 0.9 | 1.7 | 0.00 | 1.53 | 1.49 | 88 | 1011.7 |
| 20260506164505 | 62 | 138 | 1.7 | 1.7 | 0.00 | 1.53 | 1.49 | 88 | 1011.7 |
| 20260506163505 | 62 | 58 | 1.7 | 1.7 | 0.00 | 1.53 | 1.49 | 88 | 1011.7 |
| 20260506163005 | 62 | 147 | 0.9 | 1.7 | 0.00 | 1.53 | 1.49 | 88 | 1011.7 |
| 20260506162506 | 62 | 127 | 0.0 | 1.7 | 0.00 | 1.53 | 1.49 | 88 | 1011.7 |
| 20260506162005 | 62 | 88 | 0.9 | 1.7 | 0.00 | 1.57 | 1.49 | 88 | 1011.7 |
| 20260506161505 | 62 | 68 | 0.0 | 1.7 | 0.00 | 1.57 | 1.49 | 88 | 1011.7 |
| 20260506161005 | 62 | 68 | 0.9 | 2.6 | 0.00 | 1.57 | 1.49 | 88 | 1010.7 |
| 20260506160506 | 62 | 58 | 1.7 | 2.6 | 0.00 | 1.57 | 1.49 | 88 | 1010.7 |
| 20260506155506 | 62 | 338 | 0.9 | 1.7 | 0.00 | 1.62 | 1.49 | 88 | 1011.7 |
| 20260506155006 | 62 | 250 | 0.0 | 1.7 | 0.00 | 1.62 | 1.49 | 88 | 1011.7 |
| 20260506154505 | 62 | 244 | 0.9 | 1.7 | 0.00 | 1.62 | 1.49 | 88 | 1011.7 |
| 20260506153505 | 62 | 262 | 1.7 | 1.7 | 0.00 | 1.62 | 1.49 | 89 | 1011.7 |
| 20260506152505 | 62 | 220 | 1.7 | 2.6 | 0.00 | 1.62 | 1.49 | 89 | 1012.7 |
| 20260506152006 | 61 | 217 | 1.7 | 2.6 | 0.00 | 1.62 | 1.49 | 88 | 1012.7 |